TimeEST,TemperatureF,Dew PointF,Humidity,Sea Level PressureIn,VisibilityMPH,Wind Direction,Wind SpeedMPH,Gust SpeedMPH,PrecipitationIn,Events,Conditions,WindDirDegrees,DateUTC
12:17 AM,35.6,33.8,93,29.24,10.0,WSW,11.5,20.7,0.00,,Overcast,250,2014-01-12 05:17:00
12:51 AM,36.0,33.1,89,29.27,10.0,WSW,15.0,24.2,0.00,,Overcast,250,2014-01-12 05:51:00
1:19 AM,35.6,33.8,93,29.25,5.0,WSW,11.5,21.9,0.01,Rain,Rain,250,2014-01-12 06:19:00
1:49 AM,33.8,32.0,93,29.26,7.0,WSW,10.4,26.5,0.01,Snow,Light Snow,250,2014-01-12 06:49:00
1:51 AM,34.0,32.0,92,29.29,7.0,WSW,10.4,24.2,0.01,,Overcast,240,2014-01-12 06:51:00
2:29 AM,33.8,30.2,87,29.28,6.0,WSW,19.6,35.7,0.00,,Overcast,250,2014-01-12 07:29:00
2:43 AM,33.8,30.2,87,29.29,2.5,WSW,13.8,29.9,0.00,Snow,Light Snow,250,2014-01-12 07:43:00
2:51 AM,33.1,30.9,92,29.33,2.0,West,9.2,23.0,0.00,Snow,Light Snow,260,2014-01-12 07:51:00
3:05 AM,33.8,30.2,87,29.31,2.5,WSW,15.0,23.0,0.01,Snow,Light Snow,240,2014-01-12 08:05:00
3:13 AM,33.8,30.2,87,29.31,4.0,WSW,12.7,23.0,0.01,Snow,Light Snow,240,2014-01-12 08:13:00
3:51 AM,32.0,28.9,88,29.35,10.0,WSW,16.1,27.6,0.01,,Overcast,240,2014-01-12 08:51:00
4:13 AM,32.0,28.4,87,29.32,1.8,WSW,12.7,27.6,0.00,Snow,Light Snow,250,2014-01-12 09:13:00
4:51 AM,30.9,28.9,92,29.36,1.2,WSW,11.5,25.3,0.00,Snow,Light Snow,240,2014-01-12 09:51:00
5:04 AM,30.2,28.4,93,29.33,0.8,WSW,17.3,25.3,0.00,Snow,Light Snow,240,2014-01-12 10:04:00
5:21 AM,30.2,28.4,93,29.35,1.0,WSW,10.4,24.2,0.00,Snow,Light Snow,240,2014-01-12 10:21:00
5:51 AM,30.9,28.9,92,29.40,1.0,WSW,11.5,21.9,0.00,Snow,Light Snow,240,2014-01-12 10:51:00
6:51 AM,30.0,28.0,92,29.45,1.2,WSW,11.5,20.7,0.01,Snow,Light Snow,240,2014-01-12 11:51:00
7:03 AM,30.2,28.4,93,29.42,2.0,West,15.0,24.2,0.00,Snow,Light Snow,260,2014-01-12 12:03:00
7:10 AM,30.2,28.4,93,29.43,2.5,WSW,17.3,26.5,0.00,Snow,Light Snow,250,2014-01-12 12:10:00
7:32 AM,30.2,28.4,93,29.44,1.0,West,12.7,23.0,0.00,Snow,Light Snow,260,2014-01-12 12:32:00
7:34 AM,30.2,28.4,93,29.44,1.0,WSW,12.7,23.0,0.00,Snow,Light Snow,250,2014-01-12 12:34:00
7:49 AM,30.2,28.4,93,29.45,2.0,West,16.1,26.5,0.00,Snow,Light Snow,260,2014-01-12 12:49:00
7:51 AM,30.0,28.0,92,29.49,2.0,WSW,15.0,26.5,0.00,Snow,Light Snow,250,2014-01-12 12:51:00
8:03 AM,30.2,28.4,93,29.47,1.8,WSW,8.1,24.2,0.00,Snow,Light Snow,250,2014-01-12 13:03:00
8:11 AM,30.2,28.4,93,29.48,1.5,WSW,10.4,19.6,0.00,Snow,Light Snow,250,2014-01-12 13:11:00
8:21 AM,30.2,28.4,93,29.48,2.0,WSW,8.1,23.0,0.00,Snow,Light Snow,250,2014-01-12 13:21:00
8:51 AM,30.9,28.0,89,29.55,2.0,West,8.1,19.6,0.00,Snow,Light Snow,260,2014-01-12 13:51:00
9:21 AM,30.2,28.4,93,29.53,1.8,West,10.4,19.6,0.00,Snow,Light Snow,260,2014-01-12 14:21:00
9:26 AM,30.2,28.4,93,29.54,3.0,WSW,13.8,18.4,0.00,Snow,Light Snow,250,2014-01-12 14:26:00
9:51 AM,30.9,28.0,89,29.58,4.0,WSW,10.4,19.6,0.00,Snow,Light Snow,250,2014-01-12 14:51:00
10:51 AM,30.9,28.0,89,29.61,4.0,WSW,10.4,23.0,0.00,,Overcast,250,2014-01-12 15:51:00
11:25 AM,30.2,28.4,93,29.57,2.0,West,15.0,24.2,0.00,Snow,Light Snow,260,2014-01-12 16:25:00
11:49 AM,30.2,26.6,86,29.58,3.0,West,10.4,23.0,0.00,,Overcast,260,2014-01-12 16:49:00
11:51 AM,30.9,27.0,85,29.62,4.0,WSW,8.1,23.0,0.00,,Overcast,250,2014-01-12 16:51:00
12:38 PM,30.2,26.6,86,29.59,10.0,West,13.8,23.0,N/A,,Overcast,260,2014-01-12 17:38:00
12:51 PM,30.9,26.1,82,29.63,10.0,WSW,9.2,19.6,N/A,,Overcast,250,2014-01-12 17:51:00
1:33 PM,30.2,24.8,80,29.59,9.0,West,15.0,27.6,N/A,,Overcast,260,2014-01-12 18:33:00
1:51 PM,30.9,25.0,79,29.65,9.0,WSW,11.5,19.6,N/A,,Overcast,250,2014-01-12 18:51:00
2:04 PM,30.2,24.8,80,29.61,6.0,WSW,12.7,23.0,0.00,,Overcast,250,2014-01-12 19:04:00
2:34 PM,30.2,26.6,86,29.63,2.5,WSW,8.1,-,0.00,Snow,Light Snow,240,2014-01-12 19:34:00
2:42 PM,30.2,26.6,86,29.63,4.0,WSW,13.8,24.2,0.01,Snow,Light Snow,250,2014-01-12 19:42:00
2:51 PM,30.0,25.0,82,29.69,7.0,West,12.7,23.0,0.01,,Overcast,260,2014-01-12 19:51:00
3:51 PM,28.9,25.0,85,29.75,4.0,West,5.8,24.2,0.00,Snow,Light Snow,280,2014-01-12 20:51:00
4:51 PM,28.9,24.1,82,29.79,10.0,Variable,5.8,-,0.00,,Overcast,0,2014-01-12 21:51:00
5:51 PM,30.0,24.1,79,29.82,10.0,West,10.4,19.6,0.00,,Overcast,260,2014-01-12 22:51:00
6:51 PM,30.0,23.0,75,29.86,10.0,WSW,9.2,17.3,N/A,,Overcast,250,2014-01-12 23:51:00
7:51 PM,28.9,23.0,78,29.88,10.0,West,9.2,18.4,N/A,,Overcast,260,2014-01-13 00:51:00
8:51 PM,28.9,23.0,78,29.90,10.0,WSW,6.9,-,N/A,,Overcast,240,2014-01-13 01:51:00
9:51 PM,28.9,23.0,78,29.91,10.0,WSW,8.1,-,N/A,,Overcast,250,2014-01-13 02:51:00
10:51 PM,28.9,24.1,82,29.91,10.0,WSW,6.9,-,N/A,,Overcast,240,2014-01-13 03:51:00
11:51 PM,28.9,24.1,82,29.93,10.0,WSW,9.2,-,N/A,,Overcast,240,2014-01-13 04:51:00